Time,TemperatureF,DewpointF,PressureIn,WindDirection,WindDirectionDegrees,WindSpeedMPH,WindSpeedGustMPH,Humidity,HourlyPrecipIn,Conditions,Clouds,dailyrainin,SoftwareType,DateUTC
2013-08-17 00:00:00,61.0,55.0,30.19,SSE,165,0.0,0.0,82,0.00,,,-99.99,,2013-08-17 04:00:00,
2013-08-17 00:44:00,61.0,55.0,30.19,SSE,165,0.0,0.0,82,0.00,,,-99.99,,2013-08-17 04:44:00,
2013-08-17 00:53:00,61.0,55.0,30.19,SSE,165,0.0,0.0,82,0.00,,,-99.99,,2013-08-17 04:53:00,
2013-08-17 01:00:00,60.0,56.0,30.21,ESE,123,0.0,0.0,89,0.00,,,-99.99,,2013-08-17 05:00:00,
2013-08-17 01:42:00,60.0,56.0,30.21,ESE,123,0.0,0.0,89,0.00,,,-99.99,,2013-08-17 05:42:00,
2013-08-17 01:52:00,60.0,56.0,30.21,ESE,123,0.0,0.0,89,0.00,,,-99.99,,2013-08-17 05:52:00,
2013-08-17 02:00:00,59.0,56.0,30.20,East,87,0.0,0.0,92,0.00,,,-99.99,,2013-08-17 06:00:00,
2013-08-17 02:42:00,59.0,56.0,30.20,East,87,0.0,0.0,92,0.00,,,-99.99,,2013-08-17 06:42:00,
2013-08-17 02:52:00,59.0,56.0,30.20,East,87,0.0,0.0,92,0.00,,,-99.99,,2013-08-17 06:52:00,
2013-08-17 03:00:00,58.0,56.0,30.20,ENE,64,0.0,0.0,92,0.00,,,-99.99,,2013-08-17 07:00:00,
2013-08-17 03:42:00,58.0,56.0,30.20,ENE,64,0.0,0.0,92,0.00,,,-99.99,,2013-08-17 07:42:00,
2013-08-17 03:52:00,58.0,56.0,30.20,ENE,64,0.0,0.0,92,0.00,,,-99.99,,2013-08-17 07:52:00,
2013-08-17 04:00:00,57.0,55.0,30.21,SSE,161,0.0,0.0,93,0.00,,,-99.99,,2013-08-17 08:00:00,
2013-08-17 04:42:00,57.0,55.0,30.21,SSE,161,0.0,0.0,93,0.00,,,-99.99,,2013-08-17 08:42:00,
2013-08-17 04:52:00,57.0,55.0,30.21,SSE,161,0.0,0.0,93,0.00,,,-99.99,,2013-08-17 08:52:00,
2013-08-17 05:00:00,57.0,55.0,30.21,SSE,150,0.0,0.0,93,0.00,,,-99.99,,2013-08-17 09:00:00,
2013-08-17 05:43:00,57.0,55.0,30.21,SSE,150,0.0,0.0,93,0.00,,,-99.99,,2013-08-17 09:43:00,
2013-08-17 05:53:00,57.0,55.0,30.21,SSE,150,0.0,0.0,93,0.00,,,-99.99,,2013-08-17 09:53:00,
2013-08-17 06:00:00,56.0,55.0,30.22,SE,146,0.0,0.0,94,0.00,,,-99.99,,2013-08-17 10:00:00,
2013-08-17 06:42:00,56.0,55.0,30.22,SE,146,0.0,0.0,94,0.00,,,-99.99,,2013-08-17 10:42:00,
2013-08-17 06:53:00,56.0,55.0,30.22,SE,146,0.0,0.0,94,0.00,,,-99.99,,2013-08-17 10:53:00,
2013-08-17 07:00:00,59.0,57.0,30.24,NNE,22,3.0,4.0,94,0.00,,,-99.99,,2013-08-17 11:00:00,
2013-08-17 07:42:00,59.0,57.0,30.24,NNE,22,3.0,4.0,94,0.00,,,-99.99,,2013-08-17 11:42:00,
2013-08-17 07:52:00,59.0,57.0,30.24,NNE,22,3.0,4.0,94,0.00,,,-99.99,,2013-08-17 11:52:00,
2013-08-17 08:00:00,63.0,58.0,30.25,NNE,15,5.0,5.0,83,0.00,,,-99.99,,2013-08-17 12:00:00,
2013-08-17 08:42:00,63.0,58.0,30.25,NNE,15,5.0,5.0,83,0.00,,,-99.99,,2013-08-17 12:42:00,
2013-08-17 08:52:00,63.0,58.0,30.25,NNE,15,5.0,5.0,83,0.00,,,-99.99,,2013-08-17 12:52:00,
2013-08-17 09:00:00,68.0,57.0,30.27,NNE,32,6.0,8.0,66,0.00,,,-99.99,,2013-08-17 13:00:00,
2013-08-17 09:42:00,68.0,57.0,30.27,NNE,32,6.0,8.0,66,0.00,,,-99.99,,2013-08-17 13:42:00,
2013-08-17 09:52:00,68.0,57.0,30.27,NNE,32,6.0,8.0,66,0.00,,,-99.99,,2013-08-17 13:52:00,
2013-08-17 10:00:00,71.0,60.0,30.27,NNW,335,2.0,7.0,66,0.00,,,-99.99,,2013-08-17 14:00:00,
2013-08-17 10:42:00,71.0,60.0,30.27,NNW,335,2.0,7.0,66,0.00,,,-99.99,,2013-08-17 14:42:00,
2013-08-17 10:52:00,71.0,60.0,30.27,NNW,335,2.0,7.0,66,0.00,,,-99.99,,2013-08-17 14:52:00,
2013-08-17 11:00:00,74.0,59.0,30.27,NNW,330,0.0,5.0,59,0.00,,,-99.99,,2013-08-17 15:00:00,
2013-08-17 11:44:00,74.0,59.0,30.27,NNW,330,0.0,5.0,59,0.00,,,-99.99,,2013-08-17 15:44:00,
2013-08-17 11:54:00,74.0,59.0,30.27,NNW,330,0.0,5.0,59,0.00,,,-99.99,,2013-08-17 15:54:00,
2013-08-17 12:00:00,77.0,61.0,30.26,North,0,4.0,6.0,57,0.00,,,-99.99,,2013-08-17 16:00:00,
2013-08-17 12:42:00,77.0,61.0,30.26,North,0,4.0,6.0,57,0.00,,,-99.99,,2013-08-17 16:42:00,
2013-08-17 12:53:00,77.0,61.0,30.26,North,0,4.0,6.0,57,0.00,,,-99.99,,2013-08-17 16:53:00,
2013-08-17 13:00:00,79.0,56.0,30.25,East,90,1.0,8.0,45,0.00,,,-99.99,,2013-08-17 17:00:00,
2013-08-17 13:42:00,79.0,56.0,30.25,East,90,1.0,8.0,45,0.00,,,-99.99,,2013-08-17 17:42:00,
2013-08-17 13:52:00,79.0,56.0,30.25,East,90,1.0,8.0,45,0.00,,,-99.99,,2013-08-17 17:52:00,
2013-08-17 14:00:00,81.0,53.0,30.25,ENE,57,3.0,9.0,38,0.00,,,-99.99,,2013-08-17 18:00:00,
2013-08-17 14:42:00,81.0,53.0,30.25,ENE,57,3.0,9.0,38,0.00,,,-99.99,,2013-08-17 18:42:00,
2013-08-17 14:52:00,81.0,53.0,30.25,ENE,57,3.0,9.0,38,0.00,,,-99.99,,2013-08-17 18:52:00,
2013-08-17 15:00:00,82.0,51.0,30.24,NE,40,0.0,9.0,34,0.00,,,-99.99,,2013-08-17 19:00:00,
2013-08-17 15:42:00,82.0,51.0,30.24,NE,40,0.0,9.0,34,0.00,,,-99.99,,2013-08-17 19:42:00,
2013-08-17 15:52:00,82.0,51.0,30.24,NE,40,0.0,9.0,34,0.00,,,-99.99,,2013-08-17 19:52:00,
2013-08-17 16:00:00,81.0,49.0,30.23,NW,326,0.0,7.0,33,0.00,,,-99.99,,2013-08-17 20:00:00,
2013-08-17 16:42:00,81.0,49.0,30.23,NW,326,0.0,7.0,33,0.00,,,-99.99,,2013-08-17 20:42:00,
2013-08-17 16:52:00,81.0,49.0,30.23,NW,326,0.0,7.0,33,0.00,,,-99.99,,2013-08-17 20:52:00,
2013-08-17 17:00:00,81.0,50.0,30.23,North,11,0.0,4.0,34,0.00,,,-99.99,,2013-08-17 21:00:00,
2013-08-17 17:42:00,81.0,50.0,30.23,North,11,0.0,4.0,34,0.00,,,-99.99,,2013-08-17 21:42:00,
2013-08-17 17:54:00,81.0,50.0,30.23,North,11,0.0,4.0,34,0.00,,,-99.99,,2013-08-17 21:54:00,
2013-08-17 18:00:00,78.0,59.0,30.23,East,91,0.0,5.0,52,0.00,,,-99.99,,2013-08-17 22:00:00,
2013-08-17 18:42:00,78.0,59.0,30.23,East,91,0.0,5.0,52,0.00,,,-99.99,,2013-08-17 22:42:00,
2013-08-17 18:52:00,78.0,59.0,30.23,East,91,0.0,5.0,52,0.00,,,-99.99,,2013-08-17 22:52:00,
2013-08-17 19:00:00,76.0,56.0,30.23,ESE,112,0.0,4.0,51,0.00,,,-99.99,,2013-08-17 23:00:00,
2013-08-17 19:42:00,76.0,56.0,30.23,ESE,112,0.0,4.0,51,0.00,,,-99.99,,2013-08-17 23:42:00,
2013-08-17 19:52:00,76.0,56.0,30.23,ESE,112,0.0,4.0,51,0.00,,,-99.99,,2013-08-17 23:52:00,
2013-08-17 20:00:00,73.0,54.0,30.23,South,169,0.0,4.0,51,0.00,,,-99.99,,2013-08-18 00:00:00,
2013-08-17 20:42:00,73.0,54.0,30.23,South,169,0.0,4.0,51,0.00,,,-99.99,,2013-08-18 00:42:00,
2013-08-17 20:52:00,73.0,54.0,30.23,South,169,0.0,4.0,51,0.00,,,-99.99,,2013-08-18 00:52:00,
2013-08-17 21:00:00,70.0,54.0,30.25,South,184,0.0,5.0,57,0.00,,,-99.99,,2013-08-18 01:00:00,
2013-08-17 21:42:00,70.0,54.0,30.25,South,184,0.0,5.0,57,0.00,,,-99.99,,2013-08-18 01:42:00,
2013-08-17 21:52:00,70.0,54.0,30.25,South,184,0.0,5.0,57,0.00,,,-99.99,,2013-08-18 01:52:00,
2013-08-17 22:00:00,68.0,54.0,30.25,ESE,120,0.0,0.0,59,0.00,,,-99.99,,2013-08-18 02:00:00,
2013-08-17 22:42:00,68.0,54.0,30.25,ESE,120,0.0,0.0,59,0.00,,,-99.99,,2013-08-18 02:42:00,
2013-08-17 22:52:00,68.0,54.0,30.25,ESE,120,0.0,0.0,59,0.00,,,-99.99,,2013-08-18 02:52:00,
2013-08-17 23:00:00,-999.0,-99.9,30.26,SE,129,0.0,0.0,-999,0.00,,,-99.99,,2013-08-18 03:00:00,
2013-08-17 23:43:00,65.0,54.0,30.26,SE,129,0.0,0.0,68,0.00,,,-99.99,,2013-08-18 03:43:00,
2013-08-17 23:53:00,65.0,54.0,30.26,SE,129,0.0,0.0,68,0.00,,,-99.99,,2013-08-18 03:53:00,